Elizabethton, TN

2:06 AM EDT on March 23, 2017 (GMT -0400)
Elizabethton

Weather History for K0A9 - January, 2014

Change the Weather History Date:

Tuesday, January 14, 2014

  Actual Average (KTRI) Record (KTRI)
Temperature  
Mean Temperature 39 °F -  
Max Temperature 50 °F 43 °F 67 °F (1995)
Min Temperature 28 °F 23 °F 1 °F (1964)
Degree Days  
Heating Degree Days 26    
Moisture  
Dew Point 36 °F    
Average Humidity 86    
Maximum Humidity 100    
Minimum Humidity 50    
Precipitation  
Precipitation 0.00 in - - ()
Sea Level Pressure  
Sea Level Pressure 29.88 in    
Wind  
Wind Speed 5 mph (West)    
Max Wind Speed 15 mph    
Max Gust Speed -    
Visibility 9 miles    
Events Rain    
Averages and records for this station are not official NWS values.
T = Trace of Precipitation, MM = Missing Value Source: NWS Daily Summary

Daily Weather History Graph

Daily Weather History Graph

Search for Another Location

Airport or City:

Trip Planner

Search our weather history database for the weather conditions in past years. The results will help you decide how hot, cold, wet, or windy it might be!

Date:

Astronomy

Jan. 14, 2014 Rise Set
Actual Time 7:39 AM EST 5:36 PM EST
Civil Twilight 7:11 AM EST 6:04 PM EST
Nautical Twilight 6:39 AM EST 6:35 PM EST
Astronomical Twilight 6:08 AM EST 7:06 PM EST
Moon 4:39 PM EST (1/14) 6:14 AM EST (1/14)
Length of Visible Light 10h 52m
Length of Day
9h 56m
Waxing Gibbous, 98% of the Moon is Illuminated
Jan 14
Waxing Gibbous
Jan 15
Full
Jan 24
Last Quarter
Jan 30
New
Feb 6
First Quarter

Hourly Weather History & Observations

Time (EST) Temp. Windchill Dew Point Humidity Pressure Visibility Wind Dir Wind Speed Gust Speed Precip Events Conditions
12:15 AM 42.8 °F 40.1 °F 39.2 °F 87% 29.85 in 5.0 mi ESE 4.6 mph - N/A Rain Light Rain
12:35 AM 42.8 °F 40.1 °F 41.0 °F 93% 29.84 in 7.0 mi East 4.6 mph - N/A Rain Light Rain
12:55 AM 42.8 °F 41.1 °F 41.0 °F 93% 29.82 in 10.0 mi East 3.5 mph - N/A   Overcast
1:15 AM 42.8 °F 40.1 °F 41.0 °F 93% 29.81 in 10.0 mi East 4.6 mph - N/A   Overcast
1:35 AM 42.8 °F - 41.0 °F 93% 29.81 in 10.0 mi Calm Calm - N/A   Overcast
1:55 AM 42.8 °F 38.6 °F 41.0 °F 93% 29.80 in 10.0 mi East 6.9 mph - N/A   Overcast
2:15 AM 42.8 °F 40.1 °F 41.0 °F 93% 29.79 in 10.0 mi East 4.6 mph - N/A   Overcast
2:35 AM 42.8 °F 41.1 °F 41.0 °F 93% 29.79 in 10.0 mi ENE 3.5 mph - N/A   Overcast
2:55 AM 42.8 °F 39.3 °F 41.0 °F 93% 29.79 in 10.0 mi East 5.8 mph - N/A   Light Drizzle
3:15 AM 42.8 °F 41.1 °F 41.0 °F 93% 29.79 in 10.0 mi ENE 3.5 mph - N/A   Overcast
3:35 AM 42.8 °F - 41.0 °F 93% 29.79 in 10.0 mi Calm Calm - N/A   Overcast
3:55 AM 42.8 °F 41.1 °F 41.0 °F 93% 29.78 in 10.0 mi NE 3.5 mph - N/A   Overcast
4:15 AM 42.8 °F - 41.0 °F 93% 29.77 in 10.0 mi Calm Calm - N/A   Overcast
4:35 AM 42.8 °F - 41.0 °F 93% 29.76 in 10.0 mi Calm Calm - N/A   Light Drizzle
4:55 AM 42.8 °F 38.6 °F 41.0 °F 93% 29.78 in 10.0 mi WNW 6.9 mph - N/A   Light Drizzle
5:15 AM 42.8 °F 40.1 °F 41.0 °F 93% 29.78 in 6.0 mi WSW 4.6 mph - N/A   Light Drizzle
5:35 AM 42.8 °F 40.1 °F 41.0 °F 93% 29.78 in 9.0 mi SSW 4.6 mph - N/A   Light Drizzle
5:55 AM 42.8 °F 37.5 °F 41.0 °F 93% 29.81 in 5.0 mi SW 9.2 mph - N/A Rain Light Rain
6:15 AM 41.0 °F 37.1 °F 41.0 °F 100% 29.81 in 5.0 mi West 5.8 mph - N/A Rain Light Rain
6:35 AM 39.2 °F 32.5 °F 39.2 °F 100% 29.81 in 6.0 mi WSW 10.4 mph - N/A Rain Light Rain
6:55 AM 39.2 °F 34.2 °F 39.2 °F 100% 29.81 in 7.0 mi WSW 6.9 mph - N/A Rain Light Rain
7:15 AM 39.2 °F 33.0 °F 39.2 °F 100% 29.82 in 7.0 mi WSW 9.2 mph - N/A Rain Light Rain
7:35 AM 39.2 °F 34.2 °F 39.2 °F 100% 29.84 in 6.0 mi WSW 6.9 mph - N/A Rain Light Rain
7:55 AM 39.2 °F 34.2 °F 39.2 °F 100% 29.86 in 5.0 mi West 6.9 mph - N/A Rain Heavy Rain
8:15 AM 39.2 °F 35.0 °F 39.2 °F 100% 29.87 in 6.0 mi WSW 5.8 mph - N/A Rain Light Rain
8:35 AM 39.2 °F 35.9 °F 39.2 °F 100% 29.88 in 6.0 mi SW 4.6 mph - N/A Rain Light Rain
8:55 AM 39.2 °F 35.9 °F 39.2 °F 100% 29.90 in 5.0 mi WSW 4.6 mph - N/A Rain Rain
9:15 AM 39.2 °F - 39.2 °F 100% 29.89 in 7.0 mi Calm Calm - N/A Rain Light Rain
9:35 AM 39.2 °F - 39.2 °F 100% 29.88 in 10.0 mi Calm Calm - N/A   Light Drizzle
9:55 AM 41.0 °F - 41.0 °F 100% 29.90 in 10.0 mi Calm Calm - N/A   Mostly Cloudy
10:15 AM 42.8 °F - 39.2 °F 87% 29.88 in 10.0 mi Calm Calm - N/A   Mostly Cloudy
10:35 AM 42.8 °F 41.1 °F 39.2 °F 87% 29.89 in 10.0 mi West 3.5 mph - N/A   Overcast
10:55 AM 42.8 °F 39.3 °F 39.2 °F 87% 29.90 in 10.0 mi West 5.8 mph - N/A   Overcast
11:15 AM 42.8 °F 38.0 °F 39.2 °F 87% 29.88 in 10.0 mi WNW 8.1 mph - N/A   Overcast
11:35 AM 42.8 °F 38.0 °F 39.2 °F 87% 29.88 in 10.0 mi WNW 8.1 mph - N/A   Mostly Cloudy
11:55 AM 44.6 °F 38.8 °F 39.2 °F 81% 29.88 in 10.0 mi West 11.5 mph - N/A   Scattered Clouds
12:15 PM 44.6 °F 39.7 °F 39.2 °F 81% 29.88 in 10.0 mi WSW 9.2 mph - N/A   Mostly Cloudy
12:35 PM 44.6 °F 39.2 °F 35.6 °F 71% 29.88 in 10.0 mi WSW 10.4 mph - N/A   Scattered Clouds
12:55 PM 46.4 °F 40.7 °F 37.4 °F 71% 29.89 in 10.0 mi West 12.7 mph - N/A   Partly Cloudy
1:15 PM 48.2 °F - 35.6 °F 62% 29.90 in 10.0 mi WNW 12.7 mph - N/A   Scattered Clouds
1:35 PM 46.4 °F 41.9 °F 33.8 °F 62% 29.89 in 10.0 mi West 9.2 mph - N/A   Partly Cloudy
1:55 PM 48.2 °F - 35.6 °F 62% 29.88 in 10.0 mi WSW 15.0 mph - N/A   Mostly Cloudy
2:15 PM 48.2 °F - 33.8 °F 58% 29.87 in 10.0 mi WSW 13.8 mph - N/A   Mostly Cloudy
2:35 PM 48.2 °F - 32.0 °F 54% 29.88 in 10.0 mi WSW 8.1 mph - N/A   Partly Cloudy
2:55 PM 46.4 °F 42.4 °F 32.0 °F 57% 29.88 in 10.0 mi West 8.1 mph - N/A   Clear
3:15 PM 48.2 °F - 30.2 °F 50% 29.88 in 10.0 mi West 6.9 mph - N/A   Partly Cloudy
3:35 PM 50.0 °F - 32.0 °F 50% 29.89 in 10.0 mi West 8.1 mph - N/A   Scattered Clouds
3:55 PM 48.2 °F - 30.2 °F 50% 29.89 in 10.0 mi WSW 6.9 mph - N/A   Clear
4:15 PM 48.2 °F - 30.2 °F 50% 29.88 in 10.0 mi WSW 11.5 mph - N/A   Clear
4:35 PM 48.2 °F - 30.2 °F 50% 29.89 in 10.0 mi West 8.1 mph - N/A   Clear
4:55 PM 46.4 °F 44.3 °F 30.2 °F 53% 29.90 in 10.0 mi WSW 4.6 mph - N/A   Clear
5:15 PM 46.4 °F 45.2 °F 30.2 °F 53% 29.90 in 10.0 mi West 3.5 mph - N/A   Clear
5:35 PM 42.8 °F 41.1 °F 30.2 °F 61% 29.90 in 10.0 mi WNW 3.5 mph - N/A   Clear
5:55 PM 39.2 °F 35.9 °F 33.8 °F 81% 29.91 in 10.0 mi WNW 4.6 mph - N/A   Clear
6:15 PM 35.6 °F 31.7 °F 33.8 °F 93% 29.92 in 10.0 mi NW 4.6 mph - N/A   Clear
6:35 PM 35.6 °F - 32.0 °F 87% 29.93 in 10.0 mi Calm Calm - N/A   Clear
6:55 PM 35.6 °F - 32.0 °F 87% 29.94 in 10.0 mi Calm Calm - N/A   Clear
7:15 PM 33.8 °F - 32.0 °F 93% 29.94 in 10.0 mi Calm Calm - N/A   Clear
7:35 PM 32.0 °F - 30.2 °F 93% 29.95 in 10.0 mi Calm Calm - N/A   Clear
7:55 PM 32.0 °F - 30.2 °F 93% 29.96 in 10.0 mi Calm Calm - N/A   Clear
8:15 PM 30.2 °F - 30.2 °F 100% 29.96 in 10.0 mi Calm Calm - N/A   Clear
8:35 PM 30.2 °F - 28.4 °F 93% 29.96 in 10.0 mi Calm Calm - N/A   Clear
8:55 PM 30.2 °F - 28.4 °F 93% 29.96 in 10.0 mi Calm Calm - N/A   Clear
9:15 PM 28.4 °F - 28.4 °F 100% 29.96 in 10.0 mi Calm Calm - N/A   Clear
9:35 PM 28.4 °F - 28.4 °F 100% 29.96 in 10.0 mi Calm Calm - N/A   Clear
9:55 PM 28.4 °F - 28.4 °F 100% 29.96 in 10.0 mi Calm Calm - N/A   Clear
10:15 PM 30.2 °F 26.7 °F 30.2 °F 100% 29.96 in 10.0 mi NE 3.5 mph - N/A   Clear
10:35 PM 28.4 °F - 28.4 °F 100% 29.95 in 10.0 mi Calm Calm - N/A   Clear
10:55 PM 28.4 °F - 28.4 °F 100% 29.95 in 10.0 mi Calm Calm - N/A   Clear
11:15 PM 28.4 °F - 28.4 °F 100% 29.95 in 10.0 mi Calm Calm - N/A   Clear
11:35 PM 28.4 °F - 28.4 °F 100% 29.95 in 10.0 mi Calm Calm - N/A   Clear
11:55 PM 28.4 °F - 28.4 °F 100% 29.94 in 10.0 mi Calm Calm - N/A   Clear